When you browse on this site, cookies collect data to enhance your experience and personalize the content and advertising you see.
Visit our Privacy Policy to learn more. By continuing to use the site, you agree to this use of cookies and data.
  • In Austria
  • List of Countries
  • For 7 days
  • Water Temperature
  • Weather Map
  • News
  • Weather Widgets
  • user-avatar
    Login

    Hourly Weather Sutatausa

    Today, 17 September, Tuesday

    Time Temperature Precipitation Wind Pressure Humidity
    00:00 +10°C° 0 mm 1 mps 547 mmHg 94%
    01:00 +9°C° 0 mm 1 mps 547 mmHg 94%
    02:00 +9°C° 0 mm 1 mps 546 mmHg 93%
    03:00 +9°C° 0 mm 1 mps 546 mmHg 93%
    04:00 +9°C° 0 mm 1 mps 546 mmHg 92%
    05:00 +10°C° 0 mm 1 mps 547 mmHg 90%
    06:00 +11°C° 0 mm 1 mps 548 mmHg 87%
    07:00 +12°C° 0 mm 1 mps 549 mmHg 85%
    08:00 +14°C° 0 mm 1 mps 551 mmHg 74%
    09:00 +17°C° 0 mm 2 mps 552 mmHg 63%
    10:00 +20°C° 0 mm 2 mps 553 mmHg 53%
    11:00 +20°C° 0.3 mm 2 mps 553 mmHg 54%
    12:00 +20°C° 0.3 mm 2 mps 552 mmHg 55%
    13:00 +20°C° 0.3 mm 2 mps 552 mmHg 56%
    14:00 +19°C° 0.8 mm 2 mps 551 mmHg 62%
    15:00 +18°C° 0.8 mm 2 mps 550 mmHg 69%
    16:00 +17°C° 0.8 mm 2 mps 549 mmHg 75%
    17:00 +15°C° 1.1 mm 2 mps 548 mmHg 81%
    18:00 +14°C° 1.1 mm 1 mps 548 mmHg 88%
    19:00 +12°C° 1.1 mm 1 mps 547 mmHg 94%
    20:00 +12°C° 0.5 mm 1 mps 547 mmHg 95%
    21:00 +11°C° 0.5 mm 1 mps 548 mmHg 95%
    22:00 +11°C° 0.5 mm 1 mps 548 mmHg 96%
    23:00 +11°C° 0.1 mm 1 mps 548 mmHg 96%

    Tomorrow, 18 September, Wednesday

    Time Temperature Precipitation Wind Pressure Humidity
    00:00 +11°C° 0.1 mm 1 mps 548 mmHg 96%
    01:00 +9°C° 0.1 mm 0 mps 547 mmHg 96%
    02:00 +10°C° 0 mm 1 mps 547 mmHg 95%
    03:00 +10°C° 0 mm 1 mps 547 mmHg 95%
    04:00 +10°C° 0 mm 1 mps 547 mmHg 94%
    05:00 +11°C° 0 mm 1 mps 548 mmHg 92%
    06:00 +10°C° 0 mm 0 mps 548 mmHg 90%
    07:00 +11°C° 0 mm 0 mps 549 mmHg 88%
    08:00 +13°C° 0.1 mm 1 mps 549 mmHg 86%
    09:00 +14°C° 0.1 mm 1 mps 550 mmHg 83%
    10:00 +15°C° 0.1 mm 1 mps 550 mmHg 80%
    11:00 +16°C° 0.3 mm 1 mps 550 mmHg 76%
    12:00 +18°C° 0.3 mm 1 mps 550 mmHg 71%
    13:00 +19°C° 0.3 mm 1 mps 550 mmHg 67%
    14:00 +18°C° 1.1 mm 1 mps 549 mmHg 72%
    15:00 +18°C° 1.1 mm 1 mps 549 mmHg 78%
    16:00 +16°C° 1.1 mm 1 mps 548 mmHg 83%
    17:00 +15°C° 1.3 mm 1 mps 548 mmHg 87%
    18:00 +13°C° 1.3 mm 0 mps 547 mmHg 92%
    19:00 +12°C° 1.3 mm 0 mps 547 mmHg 96%
    20:00 +12°C° 1.7 mm 0 mps 547 mmHg 96%
    21:00 +11°C° 1.7 mm 0 mps 548 mmHg 96%
    22:00 +11°C° 1.7 mm 0 mps 548 mmHg 97%
    23:00 +12°C° 0.3 mm 1 mps 548 mmHg 96%

    Day after tomorrow, 19 September, Thursday

    Time Temperature Precipitation Wind Pressure Humidity
    00:00 +12°C° 0.3 mm 1 mps 547 mmHg 95%
    01:00 +12°C° 0.3 mm 1 mps 547 mmHg 95%
    02:00 +11°C° 0 mm 1 mps 547 mmHg 95%
    03:00 +10°C° 0 mm 0 mps 547 mmHg 94%
    04:00 +10°C° 0 mm 0 mps 547 mmHg 94%
    05:00 +10°C° 0 mm 0 mps 547 mmHg 93%
    06:00 +11°C° 0 mm 0 mps 548 mmHg 91%
    07:00 +11°C° 0 mm 0 mps 548 mmHg 89%
    08:00 +14°C° 0.1 mm 1 mps 549 mmHg 85%
    09:00 +15°C° 0.1 mm 1 mps 550 mmHg 80%
    10:00 +16°C° 0.1 mm 1 mps 551 mmHg 76%
    11:00 +18°C° 0.9 mm 1 mps 550 mmHg 76%
    12:00 +18°C° 0.9 mm 1 mps 550 mmHg 76%
    13:00 +18°C° 0.9 mm 1 mps 549 mmHg 76%
    14:00 +18°C° 2.1 mm 1 mps 549 mmHg 81%
    15:00 +16°C° 2.1 mm 1 mps 548 mmHg 85%
    16:00 +15°C° 2.1 mm 1 mps 547 mmHg 90%
    17:00 +13°C° 2.4 mm 0 mps 547 mmHg 92%
    18:00 +12°C° 2.4 mm 0 mps 547 mmHg 94%
    19:00 +11°C° 2.4 mm 0 mps 547 mmHg 96%
    20:00 +11°C° 0.3 mm 0 mps 547 mmHg 96%
    21:00 +11°C° 0.3 mm 0 mps 547 mmHg 96%
    22:00 +11°C° 0.3 mm 0 mps 548 mmHg 96%
    23:00 +11°C° 0.2 mm 0 mps 548 mmHg 96%

    20 September, Friday

    Time Temperature Precipitation Wind Pressure Humidity
    00:00 +11°C° 0.2 mm 0 mps 548 mmHg 96%
    01:00 +11°C° 0.2 mm 0 mps 548 mmHg 96%
    02:00 +11°C° 0.7 mm 0 mps 548 mmHg 96%
    03:00 +11°C° 0.7 mm 0 mps 548 mmHg 97%
    04:00 +11°C° 0.7 mm 0 mps 548 mmHg 97%
    05:00 +11°C° 0.6 mm 0 mps 548 mmHg 97%
    06:00 +11°C° 0.6 mm 0 mps 549 mmHg 96%
    07:00 +11°C° 0.6 mm 0 mps 549 mmHg 96%
    08:00 +13°C° 0.9 mm 1 mps 550 mmHg 93%
    09:00 +13°C° 0.9 mm 1 mps 550 mmHg 89%
    10:00 +14°C° 0.9 mm 1 mps 551 mmHg 86%
    11:00 +14°C° 0.7 mm 1 mps 551 mmHg 86%
    12:00 +15°C° 0.7 mm 1 mps 550 mmHg 86%
    13:00 +15°C° 0.7 mm 1 mps 550 mmHg 85%
    14:00 +15°C° 0.9 mm 1 mps 550 mmHg 85%
    15:00 +15°C° 0.9 mm 1 mps 550 mmHg 85%
    16:00 +15°C° 0.9 mm 1 mps 549 mmHg 85%
    17:00 +14°C° 0.5 mm 1 mps 549 mmHg 88%
    18:00 +12°C° 0.5 mm 1 mps 548 mmHg 91%
    19:00 +11°C° 0.5 mm 1 mps 548 mmHg 95%
    20:00 +11°C° 0 mm 1 mps 548 mmHg 95%
    21:00 +10°C° 0 mm 1 mps 548 mmHg 95%
    22:00 +9°C° 0 mm 0 mps 548 mmHg 95%
    23:00 +10°C° 0 mm 1 mps 548 mmHg 95%

    21 September, Saturday

    Time Temperature Precipitation Wind Pressure Humidity
    00:00 +10°C° 0 mm 1 mps 548 mmHg 94%
    01:00 +9°C° 0 mm 1 mps 547 mmHg 94%
    02:00 +9°C° 0 mm 1 mps 547 mmHg 94%
    03:00 +9°C° 0 mm 1 mps 547 mmHg 93%
    04:00 +9°C° 0 mm 1 mps 547 mmHg 93%
    05:00 +10°C° 0 mm 1 mps 548 mmHg 91%
    06:00 +11°C° 0 mm 1 mps 549 mmHg 90%
    07:00 +11°C° 0 mm 1 mps 550 mmHg 89%
    08:00 +13°C° 0.1 mm 1 mps 551 mmHg 81%
    09:00 +15°C° 0.1 mm 2 mps 552 mmHg 73%
    10:00 +17°C° 0.1 mm 2 mps 553 mmHg 66%
    11:00 +18°C° 0.4 mm 3 mps 552 mmHg 64%
    12:00 +18°C° 0.4 mm 3 mps 552 mmHg 62%
    13:00 +19°C° 0.4 mm 4 mps 552 mmHg 59%
    14:00 +18°C° 0.4 mm 3 mps 551 mmHg 61%
    15:00 +18°C° 0.4 mm 3 mps 550 mmHg 62%
    16:00 +17°C° 0.4 mm 3 mps 550 mmHg 64%
    17:00 +15°C° 0.3 mm 2 mps 549 mmHg 72%
    18:00 +13°C° 0.3 mm 2 mps 548 mmHg 81%
    19:00 +10°C° 0.3 mm 1 mps 547 mmHg 90%
    20:00 +10°C° 0.1 mm 1 mps 547 mmHg 91%
    21:00 +10°C° 0.1 mm 1 mps 547 mmHg 91%
    22:00 +9°C° 0.1 mm 1 mps 547 mmHg 92%
    23:00 +9°C° 0 mm 1 mps 547 mmHg 91%

    22 September, Sunday

    Time Temperature Precipitation Wind Pressure Humidity
    00:00 +9°C° 0 mm 1 mps 547 mmHg 90%
    01:00 +9°C° 0 mm 1 mps 547 mmHg 88%
    02:00 +9°C° 0 mm 1 mps 546 mmHg 88%
    03:00 +9°C° 0 mm 1 mps 546 mmHg 87%
    04:00 +9°C° 0 mm 1 mps 546 mmHg 86%
    05:00 +10°C° 0 mm 1 mps 547 mmHg 83%
    06:00 +11°C° 0 mm 1 mps 548 mmHg 80%
    07:00 +12°C° 0 mm 1 mps 549 mmHg 78%
    08:00 +14°C° 0 mm 1 mps 550 mmHg 71%
    09:00 +16°C° 0 mm 1 mps 552 mmHg 64%
    10:00 +18°C° 0 mm 2 mps 553 mmHg 57%
    11:00 +18°C° 0.4 mm 2 mps 552 mmHg 60%
    12:00 +18°C° 0.4 mm 2 mps 552 mmHg 63%
    13:00 +18°C° 0.4 mm 2 mps 551 mmHg 66%
    14:00 +17°C° 0.7 mm 2 mps 550 mmHg 70%
    15:00 +17°C° 0.7 mm 2 mps 550 mmHg 74%
    16:00 +16°C° 0.7 mm 2 mps 549 mmHg 78%
    17:00 +14°C° 0.6 mm 2 mps 548 mmHg 84%
    18:00 +13°C° 0.6 mm 1 mps 548 mmHg 89%
    19:00 +11°C° 0.6 mm 1 mps 547 mmHg 95%
    20:00 +11°C° 1.2 mm 1 mps 548 mmHg 95%
    21:00 +11°C° 1.2 mm 1 mps 548 mmHg 95%
    22:00 +11°C° 1.2 mm 1 mps 549 mmHg 95%
    23:00 +11°C° 0.1 mm 1 mps 548 mmHg 95%
    Show more